GW1018 Weather Reports


time (UTC)temp
C
wind
direction
speed
KPH
gust
KPH
rain 1hr
cm
rain 24hr
cm
rain mn
cm
humidity
%
barometer
mb
20260505102156 5 357 12.9 12.9 0.00 0.00 0.00 97 1010.8
20260505101656 5 4 12.9 12.9 0.00 0.00 0.00 97 1010.8
20260505100656 5 1 11.3 11.3 0.00 0.00 0.00 95 1010.5
20260505095655 5 0 9.7 9.7 0.00 0.00 0.00 94 1010.8
20260505093156 6 350 8.0 8.0 0.00 0.00 0.00 95 1010.8
20260505091155 7 14 4.8 4.8 0.00 0.00 0.00 97 1010.8
20260505090656 7 6 4.8 4.8 0.00 0.00 0.00 97 1010.8
20260505085656 7 4 4.8 4.8 0.00 0.00 0.00 97 1010.8
20260505084656 7 10 3.2 3.2 0.00 0.00 0.00 97 1010.8
20260505084155 7 13 1.6 1.6 0.00 0.00 0.00 97 1010.8
20260505082655 7 20 1.6 1.6 0.00 0.00 0.00 97 1010.8
20260505081656 7 356 1.6 1.6 0.00 0.00 0.00 97 1010.8
20260505080657 7 314 1.6 1.6 0.00 0.00 0.00 97 1010.8
20260505080156 7 67 1.6 1.6 0.00 0.00 0.00 97 1010.8
20260505075156 7 166 3.2 3.2 0.00 0.00 0.00 97 1010.8
20260505074156 7 173 3.2 3.2 0.00 0.00 0.00 97 1011.2
20260505073155 7 156 3.2 3.2 0.00 0.00 0.00 97 1011.2
20260505072656 7 160 3.2 3.2 0.00 0.00 0.00 97 1011.2
20260505071655 7 326 4.8 4.8 0.00 0.00 0.00 96 1011.5
20260505071155 7 186 4.8 4.8 0.00 0.00 0.00 96 1011.5
20260505070155 7 162 4.8 4.8 0.00 0.00 0.00 96 1011.5
20260505065157 7 145 4.8 4.8 0.00 0.00 0.00 95 1011.5
20260505063156 7 116 4.8 4.8 0.00 0.00 0.00 94 1011.5
20260505062656 7 135 4.8 4.8 0.00 0.00 0.00 94 1011.5
20260505062155 7 150 4.8 4.8 0.00 0.00 0.00 94 1011.5
20260505061155 7 195 3.2 3.2 0.00 0.00 0.36 94 1011.5
20260505060156 7 184 3.2 3.2 0.00 0.00 0.36 94 1011.5
20260505055155 7 139 1.6 1.6 0.00 0.00 0.36 94 1011.9
20260505054156 7 134 1.6 1.6 0.00 0.00 0.36 94 1011.5
20260505053655 7 290 1.6 1.6 0.00 0.00 0.36 94 1011.5
20260505052655 7 282 1.6 1.6 0.03 0.00 0.38 93 1011.5
20260505051655 7 212 1.6 1.6 0.05 0.00 0.38 93 1011.9
20260505050655 7 329 3.2 3.2 0.08 0.00 0.38 93 1011.9
20260505041656 7 32 8.0 8.0 0.28 0.00 0.33 91 1012.2
20260505040155 8 5 8.0 8.0 0.23 0.00 0.30 90 1011.9
20260505034155 8 352 8.0 8.0 0.13 0.00 0.20 87 1011.9
20260505033155 8 352 8.0 8.0 0.08 0.00 0.15 83 1011.9
20260505025655 11 322 1.6 1.6 0.00 0.00 0.05 68 1010.8
20260505025155 11 349 1.6 1.6 0.00 0.00 0.05 65 1010.8
20260505024155 11 222 1.6 1.6 0.00 0.00 0.05 64 1010.5
20260505023155 10 85 1.6 1.6 0.00 0.00 0.05 67 1010.2
20260505022655 11 24 1.6 1.6 0.00 0.00 0.05 67 1010.5
20260505021655 10 100 1.6 1.6 0.00 0.00 0.05 67 1010.2
20260505020155 11 4 1.6 1.6 0.00 0.00 0.05 69 1010.2
20260505015655 11 346 3.2 3.2 0.03 0.00 0.05 70 1010.5
20260505015155 11 4 3.2 3.2 0.03 0.00 0.05 69 1010.2
20260505014155 11 0 3.2 3.2 0.03 0.00 0.05 70 1010.2
20260505013655 11 1 4.8 4.8 0.03 0.00 0.05 68 1010.2
20260505012655 11 349 4.8 4.8 0.03 0.00 0.03 66 1010.2
20260505011655 11 351 6.4 6.4 0.03 0.00 0.03 67 1010.2
20260505011155 11 357 6.4 6.4 0.03 0.00 0.05 67 1010.2
20260505010655 11 11 6.4 6.4 0.03 0.00 0.05 67 1010.2
20260505010155 11 8 6.4 6.4 0.03 0.00 0.03 66 1010.2
20260505005655 11 2 6.4 6.4 0.03 0.00 0.03 65 1010.2
20260505004655 11 315 9.7 9.7 0.03 0.00 0.03 66 1010.2
20260505003655 12 335 9.7 9.7 0.03 0.00 0.03 61 1010.2
20260505003156 13 333 9.7 9.7 0.00 0.00 0.03 57 1010.2
20260505002155 13 339 11.3 11.3 0.00 0.00 0.00 51 1010.2
20260505001154 13 359 11.3 11.3 0.00 0.00 0.00 49 1009.5
20260505000655 13 358 11.3 11.3 0.00 0.00 0.00 51 1009.1
20260505000154 13 344 11.3 11.3 0.00 0.00 0.00 49 1009.1
20260504235155 13 347 11.3 11.3 0.00 0.00 0.00 48 1008.8
20260504234154 14 354 12.9 12.9 0.00 0.00 0.00 49 1008.8
20260504232654 15 354 14.5 14.5 0.00 0.00 0.00 44 1008.5
20260504232154 15 356 14.5 14.5 0.00 0.00 0.00 41 1008.5
20260504230655 15 357 16.1 16.1 0.00 0.00 0.00 41 1008.5
20260504230154 15 355 16.1 16.1 0.00 0.00 0.00 41 1008.5
20260504225654 15 354 14.5 14.5 0.00 0.00 0.00 41 1008.5
20260504223654 16 354 9.7 9.7 0.00 0.00 0.00 39 1008.5
20260504222654 16 358 11.3 11.3 0.00 0.00 0.00 38 1008.1
20260504221655 18 38 6.4 6.4 0.00 0.00 0.00 29 1007.8
20260504221154 18 38 6.4 6.4 0.00 0.00 0.00 29 1007.8
20260504220654 18 32 6.4 6.4 0.00 0.00 0.00 29 1007.8
20260504215654 18 50 6.4 6.4 0.00 0.00 0.00 29 1007.8
20260504214655 17 354 6.4 6.4 0.00 0.00 0.00 31 1007.8
20260504214154 17 48 8.0 8.0 0.00 0.00 0.00 31 1007.8
20260504213654 17 27 8.0 8.0 0.00 0.00 0.00 31 1007.8
20260504212654 17 63 9.7 9.7 0.00 0.00 0.00 32 1008.1
20260504211655 17 26 9.7 9.7 0.00 0.00 0.00 32 1008.1
20260504211154 17 24 11.3 11.3 0.00 0.00 0.00 32 1008.1
20260504210154 18 357 12.9 12.9 0.00 0.00 0.00 33 1008.1
20260504205654 18 357 12.9 12.9 0.00 0.00 0.00 33 1008.1
20260504204655 17 342 12.9 12.9 0.00 0.00 0.00 34 1008.5
20260504203654 17 14 14.5 14.5 0.00 0.00 0.00 34 1008.8
20260504203154 17 0 12.9 12.9 0.00 0.00 0.00 34 1008.8
20260504202654 17 359 12.9 12.9 0.00 0.00 0.00 34 1008.8
20260504201655 17 350 12.9 12.9 0.00 0.00 0.00 34 1009.1
20260504200654 17 350 12.9 12.9 0.00 0.00 0.00 35 1008.8
20260504194655 17 8 12.9 12.9 0.00 0.00 0.00 34 1008.8
20260504194155 17 6 14.5 14.5 0.00 0.00 0.00 35 1008.8
20260504193654 17 346 14.5 14.5 0.00 0.00 0.00 34 1008.8
20260504193154 16 347 14.5 14.5 0.00 0.00 0.00 35 1008.8
20260504191654 15 359 14.5 14.5 0.00 0.00 0.00 37 1008.5
20260504190154 16 359 9.7 9.7 0.00 0.00 0.00 36 1008.8
20260504185154 17 235 9.7 9.7 0.00 0.00 0.00 35 1009.5
20260504184655 17 197 8.0 8.0 0.00 0.00 0.00 31 1009.1
20260504183654 17 173 8.0 8.0 0.00 0.00 0.00 29 1009.1
20260504182654 18 139 6.4 6.4 0.00 0.00 0.00 26 1008.5
20260504182154 18 139 6.4 6.4 0.00 0.00 0.00 26 1008.5
20260504180656 18 98 6.4 6.4 0.00 0.00 0.00 25 1008.5
20260504180154 18 355 6.4 6.4 0.00 0.00 0.00 26 1008.5
20260504175655 18 5 6.4 6.4 0.00 0.00 0.00 26 1008.5
20260504175154 18 5 6.4 6.4 0.00 0.00 0.00 26 1008.5
20260504173155 19 46 6.4 6.4 0.00 0.00 0.00 26 1008.5
20260504172655 19 36 6.4 6.4 0.00 0.00 0.00 26 1008.5
20260504171655 20 341 6.4 6.4 0.00 0.00 0.00 27 1008.8
20260504171154 19 57 6.4 6.4 0.00 0.00 0.00 26 1008.8
20260504160154 18 242 4.8 4.8 0.00 0.00 0.00 28 1009.5
20260504150654 14 135 4.8 4.8 0.00 0.00 0.00 35 1010.2
20260504141154 11 181 1.6 1.6 0.00 0.00 0.00 42 1010.2
20260504130654 9 75 1.6 1.6 0.00 0.00 0.00 44 1009.5
20260504130153 9 27 0.0 0.0 0.00 0.00 0.00 47 1009.5
20260504110653 9 322 3.2 3.2 0.00 0.00 0.00 44 1009.8